Wind_Speed
33 32 32 31 31 31 30 30 30 30 30 30 30 29 30 30 30 30 30 30 30 29 28 28 28 28 28 28 27 27 26 26 25 24 24 23 23 23 22 22 22 22 21
35 34 34 33 33 33 33 32 32 32 32 32 32 32 32 31 31 32 32 32 32 31 31 30 30 30 30 30 29 29 29 28 28 27 27 26 25 25 24 24 23 23 23
35 36 35 35 35 34 34 34 34 34 33 34 34 34 33 33 33 33 33 33 33 33 33 32 32 32 32 32 32 32 31 31 31 30 29 29 28 27 27 26 26 25 25
37 37 37 37 36 36 36 36 36 35 35 34 34 34 35 35 35 35 35 34 34 34 34 34 34 34 34 34 34 34 34 33 33 33 32 31 31 30 30 29 29 28 28
38 38 39 39 38 38 38 37 38 37 37 37 36 36 35 36 36 36 36 37 36 36 36 36 35 35 35 35 35 36 36 36 35 35 35 34 34 33 33 33 32 32 31
40 40 41 41 40 39 39 39 39 39 38 38 38 38 38 37 37 38 38 39 39 38 38 38 38 37 37 37 37 37 37 38 37 37 37 37 37 36 36 36 35 35 34
41 41 42 42 41 41 41 41 41 40 40 41 40 40 40 39 39 39 39 39 39 39 40 40 40 40 39 39 39 39 39 39 39 39 39 39 39 39 38 38 37 37 36
43 42 42 42 42 42 42 43 43 43 43 43 43 43 42 41 41 41 41 40 41 41 41 42 42 42 42 42 41 41 40 41 41 41 41 41 40 40 40 40 40 39 39
44 44 43 43 44 44 44 44 44 44 44 44 45 45 44 43 42 42 42 42 42 42 43 43 44 44 44 44 44 44 43 43 43 43 43 43 42 42 41 42 42 42 41
45 45 45 45 45 45 45 46 46 46 46 45 45 46 46 45 45 44 44 44 43 44 44 44 45 46 46 46 46 46 46 45 45 45 45 44 44 43 42 42 42 42 42
46 47 47 46 46 46 46 47 48 47 47 47 46 46 47 47 47 47 46 46 46 46 47 47 48 48 48 48 48 48 47 47 47 46 45 45 45 44 43 43 42 42 43
48 48 48 48 48 48 49 49 49 50 50 49 49 49 49 49 49 50 49 49 49 48 48 49 49 50 51 50 49 49 48 48 47 47 46 46 46 45 45 45 44 43 43
49 49 49 48 49 50 51 51 51 51 51 50 51 51 50 51 51 51 51 51 51 50 49 50 50 51 52 51 50 50 49 49 48 48 48 47 47 48 47 47 46 45 45
50 50 50 50 50 51 52 52 52 52 52 52 52 52 52 52 52 52 52 52 52 52 51 51 51 51 51 52 51 51 50 49 49 49 49 49 49 49 49 48 48 47 46
50 50 51 52 51 52 52 53 53 53 52 52 52 52 52 53 53 53 54 54 54 53 53 53 52 52 53 53 52 52 51 51 50 49 49 49 49 49 49 48 48 48 48
52 52 52 52 52 53 53 53 54 54 54 53 53 53 53 54 55 56 56 55 55 55 54 53 54 54 54 54 54 53 53 52 51 50 50 50 50 50 50 50 50 50 50
53 53 53 53 53 54 53 54 55 55 55 54 54 55 56 56 56 57 57 56 56 55 54 53 53 54 54 54 54 53 53 52 52 52 52 53 52 52 52 52 52 52 52
54 54 54 53 54 54 54 55 55 55 55 55 55 56 56 56 56 56 56 56 56 56 55 54 53 54 54 54 54 54 53 53 52 52 53 54 53 53 54 54 54 54 54
52 53 53 54 54 55 55 54 54 55 55 56 56 57 56 56 56 56 56 56 56 56 56 55 54 55 54 53 54 54 54 54 53 53 54 55 55 55 55 56 56 56 57
49 51 51 53 54 54 54 55 55 55 55 55 56 57 57 57 57 56 56 56 56 56 56 55 55 54 53 53 54 54 54 54 54 55 55 55 56 56 56 56 57 57 57
49 49 50 51 52 53 54 54 55 55 55 55 55 56 56 57 58 57 57 56 56 56 56 56 55 54 54 53 54 54 55 55 55 55 55 56 56 56 56 56 56 57 58
49 49 50 50 51 51 53 54 54 54 55 55 56 56 56 56 56 57 57 57 57 56 55 55 55 54 54 54 55 55 55 56 56 56 56 57 57 57 57 56 56 56 57
48 49 50 50 51 51 52 53 53 54 54 54 54 54 54 55 55 56 56 57 57 57 57 57 56 55 55 55 56 56 56 56 56 57 57 57 58 57 57 57 57 57 57
48 49 50 50 51 52 52 52 52 53 53 53 54 53 53 53 54 55 55 55 56 57 57 57 57 56 56 56 56 56 56 57 57 57 57 57 57 57 57 57 57 57 58
48 49 49 50 51 51 52 52 53 54 54 53 54 53 53 53 54 55 55 55 55 55 55 55 55 55 55 55 55 55 56 57 57 56 57 57 57 56 56 56 56 56 56
48 48 48 49 51 51 52 53 53 54 54 53 53 54 53 53 53 54 54 54 54 54 54 54 54 54 53 53 54 53 53 53 54 53 54 54 54 54 54 55 56 56 56
Wind_Direction
252 253 254 255 255 255 254 254 256 257 257 256 256 256 257 256 255 255 256 258 259 260 261 263 264 264 265 266 266 265 265 266 267 267 268 268 269 268 269 271 270 269 269
254 253 253 254 256 256 255 255 255 256 256 258 257 257 257 257 256 257 258 259 260 261 261 262 262 263 264 264 264 264 265 265 265 266 267 268 268 267 268 268 269 269 269
255 254 254 255 256 256 256 255 255 255 256 258 258 257 257 257 258 258 258 259 260 261 260 262 262 262 263 263 264 264 264 265 265 265 266 266 267 267 267 268 269 270 270
256 256 255 256 257 256 256 255 255 255 256 257 257 257 256 258 260 259 259 259 261 263 262 262 263 264 263 263 264 265 265 264 264 265 265 265 265 267 267 268 268 269 269
257 257 257 257 257 257 257 256 255 255 256 258 258 258 258 259 258 259 260 261 262 263 263 263 263 264 264 265 265 265 265 265 265 265 265 264 264 265 266 267 267 267 268
258 258 258 258 258 258 258 257 257 256 256 257 258 258 259 259 258 259 261 263 263 263 263 263 264 265 266 266 266 266 266 266 266 266 265 265 265 265 265 265 266 267 267
257 257 258 258 258 258 257 257 258 257 258 257 258 259 260 260 259 260 261 262 263 264 263 264 265 266 266 267 267 267 267 267 266 266 266 266 266 266 265 265 265 266 267
255 257 257 257 258 257 258 258 258 258 258 258 258 258 258 259 259 260 261 262 263 264 264 265 266 265 266 266 266 267 267 267 267 266 266 266 265 265 265 265 265 265 266
255 256 257 257 258 258 258 259 259 259 260 259 259 260 260 259 259 260 261 262 263 264 265 266 266 266 266 267 267 268 268 268 267 267 266 266 266 265 265 265 265 265 266
255 256 257 258 258 258 258 259 259 261 261 261 261 260 261 261 261 260 262 262 263 265 266 266 267 268 267 267 268 269 268 268 267 266 266 266 266 265 264 264 264 264 264
255 256 257 258 258 258 258 258 259 259 259 260 260 260 260 261 261 262 262 263 264 265 265 266 267 267 267 268 268 268 268 267 265 265 265 264 265 265 264 264 264 264 264
256 256 257 257 257 258 258 259 258 258 259 260 260 261 261 262 262 263 263 263 264 264 265 266 266 266 267 267 267 267 267 267 265 264 264 264 264 264 263 263 263 263 264
255 256 256 257 257 258 258 258 259 260 259 261 261 261 262 263 263 264 264 264 265 265 266 266 266 267 266 266 266 266 266 265 265 264 264 264 263 263 263 263 263 263 264
256 255 256 257 257 258 259 259 260 260 260 260 261 262 263 264 264 265 265 265 265 265 266 266 267 266 266 265 265 265 265 264 264 264 264 264 264 263 263 262 262 262 263
256 256 257 258 258 258 258 258 259 259 260 261 262 262 263 263 264 265 265 265 266 266 266 266 266 266 266 266 265 264 265 264 264 264 263 263 263 263 262 262 262 263 263
255 256 257 257 258 258 258 259 259 260 260 260 261 262 263 263 264 265 265 266 266 266 266 265 265 265 266 265 265 264 264 264 264 263 263 263 263 263 263 263 263 263 264
255 256 256 257 258 258 259 259 259 260 260 261 262 264 264 265 266 266 266 266 266 266 267 266 266 266 266 265 264 264 263 264 263 263 264 264 264 264 264 263 263 263 264
257 257 258 258 259 259 259 260 260 260 261 262 263 264 264 264 265 266 266 266 266 267 267 267 267 266 266 265 264 263 263 263 263 263 264 264 264 265 264 263 263 263 263
258 258 258 259 260 261 261 261 261 261 262 263 264 265 265 264 265 265 265 266 266 267 267 267 266 266 266 265 264 264 263 263 263 263 264 264 264 264 264 264 264 264 264
259 259 259 260 260 260 261 262 262 262 263 264 265 266 266 265 264 264 264 265 265 266 266 267 266 265 265 264 264 263 263 263 263 263 264 264 265 265 264 265 264 264 264
261 260 260 261 261 261 261 261 262 263 264 265 266 266 266 265 265 264 264 264 266 266 266 267 266 265 265 265 264 264 264 264 264 264 265 265 265 266 265 265 265 265 265
262 262 262 262 262 263 263 263 263 263 264 265 266 266 266 265 265 265 265 265 266 266 266 266 266 265 265 265 265 265 265 265 265 265 266 266 266 266 266 266 267 266 266
264 264 264 263 263 264 266 266 265 265 265 266 265 265 265 265 265 265 266 266 266 266 266 265 266 266 266 266 265 265 265 265 266 267 266 266 267 267 267 267 267 267 266
267 266 266 265 264 264 265 265 266 267 267 267 266 265 265 265 266 266 266 266 266 266 266 266 267 267 266 265 265 265 265 266 267 267 267 267 267 268 267 266 266 265 265
268 268 268 267 266 265 266 266 266 267 267 267 267 266 265 265 266 266 265 265 265 266 266 266 266 266 266 265 265 266 266 266 267 268 268 268 268 268 267 267 266 266 266
269 270 270 270 269 269 268 267 267 267 267 267 266 266 265 265 265 265 266 265 265 265 266 266 266 266 266 266 266 266 267 267 267 267 268 268 268 268 268 267 267 266 266
Height
5782 5784 5786 5787 5789 5791 5792 5793 5794 5796 5797 5798 5800 5801 5802 5804 5805 5807 5808 5809 5811 5812 5813 5814 5814 5815 5816 5817 5817 5818 5818 5819 5819 5820 5820 5820 5821 5821 5822 5822 5822 5823 5823
5775 5776 5778 5780 5781 5783 5785 5786 5787 5789 5790 5791 5792 5794 5795 5796 5798 5799 5801 5802 5804 5805 5806 5807 5808 5808 5809 5810 5810 5811 5812 5813 5813 5814 5814 5815 5815 5816 5816 5817 5817 5817 5818
5767 5769 5770 5772 5773 5775 5777 5778 5780 5781 5782 5784 5785 5786 5787 5789 5790 5792 5793 5795 5796 5797 5798 5799 5800 5801 5802 5803 5803 5804 5805 5806 5806 5807 5808 5808 5809 5809 5810 5811 5811 5811 5812
5758 5760 5762 5764 5765 5767 5768 5770 5771 5773 5774 5776 5777 5778 5780 5781 5783 5784 5785 5787 5788 5789 5790 5791 5792 5793 5794 5795 5795 5796 5797 5798 5799 5799 5800 5801 5802 5802 5803 5804 5804 5805 5805
5749 5751 5753 5754 5756 5758 5760 5761 5763 5764 5766 5767 5769 5770 5772 5773 5774 5776 5777 5778 5780 5781 5782 5783 5784 5785 5786 5787 5787 5788 5788 5789 5790 5791 5792 5793 5794 5794 5795 5796 5797 5798 5798
5740 5742 5744 5745 5747 5749 5751 5752 5754 5755 5757 5759 5760 5762 5763 5764 5765 5767 5768 5769 5771 5772 5773 5774 5775 5776 5777 5778 5778 5779 5779 5780 5781 5782 5782 5783 5784 5785 5786 5787 5788 5789 5790
5730 5732 5734 5736 5738 5739 5741 5743 5744 5746 5748 5749 5751 5752 5753 5755 5756 5757 5759 5760 5761 5762 5763 5764 5766 5767 5767 5768 5769 5769 5770 5770 5771 5771 5772 5773 5774 5775 5776 5778 5779 5780 5781
5720 5722 5724 5726 5728 5729 5731 5733 5734 5736 5738 5739 5741 5742 5744 5746 5746 5747 5748 5749 5751 5752 5753 5754 5755 5756 5757 5758 5758 5759 5759 5760 5760 5761 5762 5763 5764 5765 5766 5767 5769 5770 5771
5710 5712 5714 5715 5717 5719 5721 5722 5724 5726 5727 5728 5730 5732 5733 5735 5736 5737 5738 5739 5740 5741 5742 5743 5743 5744 5745 5746 5747 5748 5748 5749 5749 5750 5750 5751 5752 5754 5755 5756 5758 5759 5761
5699 5701 5703 5705 5706 5708 5710 5711 5713 5714 5716 5717 5719 5720 5722 5723 5725 5727 5728 5728 5729 5729 5730 5731 5731 5732 5733 5734 5735 5735 5736 5736 5737 5738 5739 5740 5741 5742 5743 5745 5746 5748 5749
5688 5690 5692 5694 5695 5697 5698 5700 5701 5703 5704 5706 5707 5708 5710 5711 5713 5714 5716 5717 5718 5718 5718 5718 5719 5719 5720 5721 5722 5722 5723 5724 5725 5726 5727 5728 5729 5730 5731 5733 5735 5736 5738
5676 5678 5680 5682 5683 5685 5686 5688 5689 5690 5692 5693 5695 5696 5697 5699 5700 5701 5703 5705 5705 5706 5706 5706 5706 5706 5706 5707 5708 5709 5710 5711 5712 5713 5714 5716 5717 5718 5720 5722 5723 5725 5727
5664 5666 5667 5669 5670 5672 5673 5674 5676 5677 5678 5680 5682 5683 5684 5685 5686 5687 5689 5690 5691 5692 5692 5692 5692 5692 5692 5693 5694 5695 5696 5697 5699 5700 5702 5703 5704 5706 5708 5709 5711 5713 5715
5651 5653 5654 5656 5658 5659 5660 5661 5663 5664 5665 5667 5668 5669 5670 5671 5672 5673 5674 5675 5677 5678 5679 5679 5678 5678 5678 5679 5680 5681 5683 5684 5685 5687 5688 5690 5691 5693 5695 5697 5699 5700 5702
5638 5640 5641 5643 5644 5645 5646 5648 5649 5650 5651 5653 5654 5655 5656 5657 5658 5659 5659 5660 5661 5663 5665 5665 5664 5664 5663 5664 5665 5667 5669 5670 5672 5673 5675 5676 5678 5679 5681 5683 5685 5687 5689
5625 5626 5628 5629 5630 5631 5633 5634 5635 5636 5637 5638 5639 5641 5641 5642 5643 5644 5644 5645 5645 5647 5649 5650 5649 5649 5649 5649 5651 5652 5654 5656 5658 5660 5661 5663 5664 5666 5667 5669 5671 5673 5675
5611 5612 5614 5615 5616 5617 5618 5619 5621 5622 5623 5624 5625 5625 5626 5627 5628 5628 5629 5630 5630 5631 5632 5634 5634 5633 5634 5635 5636 5638 5640 5642 5644 5645 5647 5648 5650 5651 5653 5655 5657 5659 5661
5596 5598 5599 5601 5602 5603 5604 5605 5606 5607 5608 5609 5610 5610 5611 5612 5613 5613 5614 5614 5615 5615 5617 5618 5619 5618 5619 5620 5621 5623 5625 5627 5629 5631 5632 5633 5635 5636 5638 5639 5641 5644 5645
5582 5583 5585 5586 5588 5589 5590 5591 5592 5593 5593 5594 5595 5595 5596 5596 5597 5598 5598 5599 5600 5600 5601 5602 5603 5603 5604 5604 5606 5608 5610 5612 5614 5616 5617 5618 5620 5621 5622 5624 5626 5628 5630
5568 5569 5570 5571 5573 5574 5575 5576 5577 5578 5579 5579 5580 5580 5580 5581 5582 5582 5583 5584 5584 5585 5585 5586 5588 5588 5589 5590 5592 5594 5596 5597 5599 5600 5602 5603 5604 5605 5607 5608 5610 5611 5613
5555 5556 5557 5557 5558 5559 5560 5561 5562 5563 5563 5564 5564 5565 5565 5565 5566 5566 5567 5568 5569 5569 5570 5571 5572 5573 5575 5576 5577 5579 5580 5582 5583 5584 5586 5588 5589 5590 5591 5592 5593 5594 5595
5541 5542 5543 5543 5544 5545 5545 5546 5547 5547 5548 5549 5549 5549 5549 5550 5550 5551 5552 5552 5553 5554 5555 5556 5557 5558 5560 5561 5562 5563 5564 5566 5569 5571 5571 5572 5572 5573 5574 5576 5576 5577 5579
5527 5528 5529 5529 5530 5530 5530 5531 5531 5532 5532 5533 5534 5534 5534 5535 5535 5536 5536 5537 5538 5538 5539 5541 5542 5543 5545 5546 5547 5548 5549 5550 5553 5554 5554 5556 5556 5557 5558 5558 5559 5561 5562
5514 5514 5514 5515 5516 5516 5516 5516 5516 5517 5517 5518 5518 5519 5519 5520 5520 5520 5521 5521 5522 5523 5524 5525 5527 5528 5529 5529 5530 5532 5533 5534 5536 5537 5537 5539 5540 5541 5541 5542 5542 5543 5545
5500 5499 5500 5500 5500 5501 5501 5501 5501 5502 5502 5502 5503 5503 5503 5504 5505 5505 5506 5507 5507 5508 5508 5509 5510 5511 5512 5513 5514 5516 5517 5518 5521 5522 5521 5523 5524 5524 5525 5525 5526 5526 5528
5485 5485 5485 5485 5485 5485 5485 5485 5485 5486 5487 5487 5487 5488 5488 5489 5489 5489 5489 5490 5492 5493 5493 5494 5495 5496 5497 5498 5499 5500 5501 5502 5504 5506 5506 5506 5507 5507 5509 5510 5509 5510 5511